Kezdőlap
METAR-TAF:

METAR-TAF

Repülőterek :

Webster City Municipal Airport

Webster City, Iowa, Amerikai Egyesült Államok

földrajzi szélesség: 42-26N, földrajzi hosszúság: 093-52W, magasság: 342 m

Jelenlegi meteorológiai megfigyelések

A jelentés 27 perccel ezelõtt készült, 13:15 UTC
Nyugat-délnyugati szél 7 kt
Hőmérséklet 18°C
Páratartalom 100%
Légköri nyomás 1011 hPa
Látótávolság: 12.9 km
Borult 400 lábon

METAR: KEBS 251315Z AUTO 25007KT 8SM OVC004 18/18 A2986 RMK AO2

Idő: 08:42 (13:42 UTC)


TAF: hiányzik

Meteorológiai megfigyelések és előrejelzések több, mint 4000 repülőtéren (METAR és TAF jelentéseket).

A térképen piros és sárga pontok jelzik az elérhető meteorológiai állomásokat.

Mozgassa az egeret a pont fölött, hogy megjelenjen az állomás neve.

Azután kattintson az időjárási megfigyelések és előrejelzések megtekintéséhez.

A térkép megváltoztatása: kattintson a fekete keresztel jelölt zöld gombra ráközelítéshez, a vonallal jelölt zöld gombra távolításhoz, vagy a zöld nyilakra a szomszédos térképek eléréséhez.


METAR-TAF: